Temp
19 19 20 20 21 21 22 22 22 23 23 23 23 23 23 25 27 27 27 31 30 30 29 29 29 31 28 25 25 24 26 31 32 33 33 33 32 34 33 31 30 30 28 28 27
18 19 19 20 21 21 22 22 22 23 24 23 23 23 24 25 26 27 30 30 31 30 29 30 32 32 31 28 24 24 26 34 35 34 34 34 33 33 33 32 30 29 30 29 27
19 19 20 20 21 21 22 22 22 23 24 24 23 23 24 24 24 31 32 31 30 30 30 32 34 27 26 28 29 32 31 36 36 36 36 34 34 35 32 29 30 28 29 30 28
19 19 20 20 21 22 22 22 23 23 24 24 24 23 24 24 29 31 31 30 30 30 29 31 29 25 27 29 33 32 36 36 36 36 35 34 35 34 32 31 31 30 30 30 29
18 19 20 21 21 22 22 23 23 24 25 24 24 24 24 25 30 31 30 30 30 29 26 24 23 24 28 31 32 33 36 37 36 36 35 36 34 34 32 32 31 31 31 30 29
18 19 20 21 21 22 23 24 24 25 25 25 24 24 23 28 32 32 31 30 30 29 26 24 25 26 28 29 29 29 36 35 35 35 35 33 33 33 31 31 31 31 30 30 30
18 19 20 21 22 23 23 24 25 25 25 25 24 24 26 29 32 31 30 30 31 31 30 28 31 31 28 28 28 29 33 34 34 34 34 34 32 31 31 31 31 31 30 31 30
19 20 21 22 22 23 24 25 25 25 26 25 24 23 26 34 32 30 31 31 32 33 34 35 32 28 27 27 27 27 28 29 34 34 33 32 29 31 32 31 30 31 31 31 29
19 20 21 22 23 24 25 25 26 25 25 25 24 24 30 34 32 32 32 33 33 34 34 36 35 26 26 24 23 25 26 28 29 34 34 32 30 32 31 31 30 30 31 30 28
19 20 22 23 23 24 26 26 26 26 25 23 25 27 30 34 35 34 34 35 34 34 34 35 33 25 23 23 23 25 25 26 27 32 34 32 31 31 31 31 31 30 30 30 28
19 21 22 23 24 24 26 26 25 25 27 28 30 32 35 35 36 36 36 36 36 35 32 34 32 26 25 26 27 27 27 27 30 30 27 29 32 31 32 31 31 30 29 30 29
20 21 22 24 25 25 25 24 31 33 30 30 32 34 36 38 35 36 36 34 34 32 34 33 31 34 29 28 29 28 27 27 26 30 26 27 27 26 29 33 32 31 31 30 30
20 21 23 25 26 26 27 29 33 34 30 32 33 34 36 37 35 35 35 35 34 33 34 33 36 34 33 32 28 29 28 28 28 25 24 25 24 25 28 29 33 33 32 31 30
20 21 23 25 25 27 29 33 34 34 27 32 33 35 36 36 34 38 37 35 35 33 34 34 37 39 37 36 35 32 33 34 29 28 24 25 24 23 26 27 26 33 33 31 30
21 21 23 23 23 24 30 33 33 33 27 35 34 38 36 34 35 36 39 35 34 34 34 33 35 36 37 36 37 36 37 34 33 31 26 25 23 24 24 28 26 32 33 32 31
21 22 24 22 21 30 31 32 33 28 29 35 36 35 34 35 35 37 36 37 37 35 35 34 36 37 36 37 36 37 37 35 34 30 29 25 25 26 24 27 26 29 31 32 31
23 23 23 22 26 29 30 29 27 27 37 35 33 34 34 34 34 35 35 35 32 32 31 33 34 36 37 36 35 34 33 28 29 29 30 27 26 25 29 28 30 29 30 28 32
24 25 25 26 27 29 30 27 28 33 34 37 37 34 33 34 34 35 34 32 33 33 30 30 30 34 36 34 33 33 32 27 30 29 32 29 30 30 31 30 28 28 30 31 28
23 25 25 28 29 29 26 26 29 32 35 35 35 35 34 35 35 34 33 32 33 32 30 30 31 36 37 36 34 33 31 32 31 32 31 31 29 27 28 27 24 26 26 26 25
21 23 27 29 30 29 26 26 30 32 35 33 32 33 31 33 33 33 33 34 34 35 33 32 30 33 36 36 36 33 34 30 28 30 30 31 30 28 29 27 27 24 24 22 22
21 25 31 31 30 27 25 28 32 35 34 33 31 31 31 31 31 32 33 35 35 36 34 33 30 31 34 34 33 32 31 32 30 29 28 28 28 31 26 24 23 22 22 21 20
22 25 32 31 26 26 27 31 31 34 33 33 33 31 31 31 30 31 31 33 34 34 33 33 30 29 32 33 35 33 32 31 26 28 29 28 25 25 23 22 21 20 19 19 19
20 25 32 32 26 27 30 32 34 33 32 32 32 33 32 30 29 30 31 34 34 32 29 34 29 27 28 30 33 34 32 31 31 28 28 28 24 23 21 20 19 19 18 18 17
20 26 29 28 28 29 29 31 32 34 33 33 31 31 30 29 29 29 30 33 34 33 31 31 31 28 26 30 32 32 34 34 31 28 28 26 23 22 23 20 20 18 17 17 17
23 26 26 26 28 29 28 29 30 30 33 32 31 31 30 28 29 29 30 31 33 30 34 31 29 32 30 32 32 33 33 33 30 30 29 27 26 24 23 21 19 18 18 17 17
23 22 24 25 27 29 28 29 30 31 30 30 29 31 30 28 29 28 30 28 29 28 33 30 27 32 29 30 31 31 30 32 31 32 28 25 23 23 22 21 19 20 20 19 18
22 22 23 24 27 28 28 30 30 30 31 31 30 29 29 29 30 30 30 27 27 26 25 26 26 27 27 28 29 25 26 30 30 30 29 26 23 22 21 21 20 20 20 19 19
Height
798 794 791 788 785 782 780 778 776 773 771 770 769 767 764 761 760 759 757 753 752 756 757 760 761 763 762 765 771 777 793 785 776 772 772 759 768 763 764 777 782 786 796 803 811
798 794 790 787 784 781 778 777 775 772 770 769 768 766 764 761 759 756 750 752 752 754 758 760 761 761 760 773 776 782 793 766 750 752 762 759 763 765 772 780 791 795 800 805 811
797 793 789 786 782 779 777 775 773 771 768 767 767 766 765 763 761 747 745 750 752 753 755 759 754 765 773 772 773 766 776 751 749 745 748 760 764 760 777 796 790 796 799 803 810
797 792 788 785 781 777 775 773 771 770 767 766 766 765 764 764 773 743 745 748 752 754 758 764 765 778 778 774 755 772 746 747 749 748 756 764 758 767 773 786 786 793 798 802 806
796 791 787 783 779 775 773 770 768 767 765 764 764 764 764 765 753 745 746 749 750 755 770 779 781 784 781 768 759 763 750 746 747 750 756 757 766 771 781 781 788 795 799 801 803
794 790 785 781 777 773 770 767 765 764 764 763 763 763 764 768 741 743 746 750 749 761 763 768 776 775 770 776 777 772 749 753 755 759 761 773 778 779 788 786 792 796 799 799 801
793 788 783 779 775 771 768 765 763 762 762 762 762 763 761 752 740 743 746 749 749 753 764 755 752 761 761 778 775 773 770 761 763 765 775 771 794 798 787 788 796 797 797 798 804
791 786 782 777 773 768 766 763 761 760 760 761 762 763 758 735 738 743 747 749 750 749 749 751 754 765 780 784 794 799 789 800 769 767 773 779 817 792 786 793 799 796 794 798 806
790 784 780 775 771 766 763 761 760 760 760 761 762 762 755 736 738 740 744 745 748 750 750 748 751 780 790 804 822 813 822 812 797 762 773 785 809 790 787 794 799 797 794 799 805
788 783 777 772 768 764 761 760 760 760 760 761 760 766 743 736 731 735 739 741 743 744 749 751 759 798 809 821 855 827 829 816 812 780 771 789 797 792 788 792 795 796 797 800 805
786 780 775 770 766 763 760 759 762 763 758 752 745 737 728 726 729 732 735 737 737 744 766 752 777 802 800 794 790 798 808 807 790 785 810 804 797 797 789 790 792 794 796 799 802
784 778 772 767 764 762 761 760 750 748 757 739 736 734 725 722 734 729 731 742 747 765 748 764 778 753 767 775 778 795 804 803 810 795 817 813 817 809 796 784 785 789 793 797 801
782 775 769 764 761 760 757 753 748 746 758 738 729 730 724 724 735 733 728 735 749 759 753 763 750 745 756 768 784 787 795 794 800 812 823 820 834 813 792 791 780 781 785 791 796
779 773 767 762 763 758 754 748 748 746 780 751 736 728 720 723 740 719 720 732 743 758 749 751 729 735 744 754 753 779 753 766 799 807 847 816 855 830 803 797 801 778 781 788 790
777 772 767 764 761 759 752 748 748 747 816 730 731 711 715 734 725 726 716 725 749 748 748 760 747 747 750 749 739 755 734 758 768 783 811 826 839 821 809 796 795 780 774 775 779
774 770 765 764 762 755 752 750 748 787 803 738 722 731 736 731 730 720 723 718 723 743 740 746 724 731 739 734 736 734 742 751 752 782 816 808 813 817 808 792 790 776 771 770 777
771 766 763 763 758 754 753 751 789 802 725 742 743 731 739 744 741 734 741 746 765 777 778 756 748 729 724 747 740 748 769 819 817 815 807 787 814 808 772 776 774 773 773 777 776
765 761 760 758 757 756 755 772 800 755 747 719 720 731 748 737 741 737 746 762 746 752 775 789 792 744 724 741 758 759 769 817 825 827 801 786 797 781 754 763 771 771 767 768 787
763 759 758 754 755 756 764 795 779 753 731 737 730 744 747 732 736 739 746 754 743 744 780 780 775 726 721 718 735 758 778 754 784 774 797 783 782 774 771 774 781 779 784 792 800
763 760 752 751 754 756 774 784 761 739 731 737 759 748 766 751 749 744 745 730 735 724 729 751 782 740 724 712 723 744 738 785 790 811 813 793 788 796 782 785 785 795 801 808 808
764 762 748 750 753 761 785 769 748 728 728 746 756 761 757 758 752 750 744 726 716 720 720 734 760 758 737 746 753 754 764 758 768 785 813 818 804 758 780 786 798 809 815 812 808
768 770 747 748 768 763 771 752 736 734 731 739 742 751 757 753 760 757 754 741 718 719 733 725 749 773 756 733 722 732 750 756 800 798 783 794 813 782 790 793 791 806 812 818 818
778 762 745 747 777 769 750 742 733 740 741 744 748 741 743 756 771 754 745 723 719 728 743 724 756 789 783 758 732 741 741 744 750 766 788 801 816 791 805 818 812 812 819 825 828
781 771 750 747 748 758 758 750 748 731 740 739 747 745 754 762 753 760 751 729 721 727 722 724 746 771 803 775 749 755 742 737 752 786 782 789 803 806 805 816 816 824 826 829 833
777 770 770 773 762 755 754 754 756 755 737 739 749 750 756 769 763 764 750 743 729 730 722 736 764 750 756 750 747 746 746 749 763 757 776 783 787 788 793 803 812 818 826 832 837
785 787 774 772 759 756 757 761 757 750 753 756 760 751 751 762 760 765 752 754 753 742 732 735 770 750 767 757 753 763 761 747 753 751 768 782 803 786 796 802 813 817 822 825 830
791 788 783 774 766 765 762 754 753 749 749 746 749 754 757 749 740 737 734 742 746 755 760 762 768 775 788 769 767 798 789 769 759 757 764 787 796 795 804 806 810 815 818 821 824
Wind_Speed
21 20 20 19 17 15 14 13 12 12 12 14 15 16 16 15 13 8 6 6 12 7 6 6 10 7 20 6 5 3 1 1 8 9 18 18 19 16 18 25 18 9 18 24 33
21 21 22 21 19 17 16 14 11 11 12 13 14 15 14 15 12 12 12 8 6 6 8 9 10 10 6 4 4 2 2 7 10 10 18 20 17 16 13 18 23 22 22 28 34
21 22 22 22 20 18 16 14 12 11 12 13 13 13 12 12 4 7 14 14 10 7 12 13 16 14 8 5 9 4 5 6 11 11 16 17 16 16 20 20 22 27 23 20 29
23 24 23 23 21 18 17 15 13 11 12 13 12 12 11 3 3 3 12 11 11 9 10 11 12 10 4 2 3 3 9 12 11 16 15 12 13 14 19 21 22 21 20 20 12
24 25 24 23 22 19 17 16 14 12 11 11 10 10 4 4 8 10 13 12 10 7 21 21 17 7 4 6 6 3 8 12 15 13 9 11 7 18 23 23 21 19 19 18 15
25 26 25 23 22 20 18 17 14 10 9 9 8 7 1 5 8 18 16 15 9 10 21 8 11 14 3 7 7 17 9 15 11 7 14 12 11 16 20 21 20 18 16 16 13
26 27 26 24 22 20 19 15 11 9 8 7 5 3 5 11 12 18 17 15 12 15 11 25 20 5 4 7 15 12 6 12 11 8 11 9 13 13 16 18 17 14 11 18 12
27 27 25 25 22 20 18 13 7 6 5 5 3 1 7 9 18 17 16 12 12 11 10 1 20 11 6 2 10 9 4 3 9 13 3 8 11 16 15 14 13 13 11 15 19
28 27 26 25 22 21 17 8 4 3 3 3 2 4 7 15 15 20 21 21 19 14 14 11 7 7 4 15 9 6 4 4 8 13 10 6 13 17 14 13 11 10 8 15 9
29 28 27 25 22 21 15 8 6 4 4 4 9 4 7 10 15 24 22 24 15 10 10 8 3 6 5 7 6 13 7 4 5 3 12 9 13 15 14 15 13 10 9 12 15
30 30 27 24 20 19 16 4 1 1 7 9 7 4 4 25 19 17 20 16 11 7 8 8 7 10 17 22 20 18 11 7 2 6 6 10 9 13 14 12 14 13 9 14 12
31 31 27 22 18 15 9 4 9 8 7 17 18 19 28 11 8 11 21 9 6 8 9 4 11 12 23 23 19 19 10 4 12 7 6 12 3 10 10 16 16 15 12 15 13
32 32 29 19 15 11 10 12 9 14 3 9 14 9 8 7 9 10 9 10 11 10 14 8 9 25 21 22 22 19 23 12 14 16 5 11 3 10 5 2 13 16 15 17 16
33 32 26 17 6 8 9 10 9 14 2 7 9 11 7 7 9 13 19 11 7 14 15 9 9 0 6 5 14 9 26 19 23 12 7 4 4 5 8 6 7 17 16 16 16
33 30 21 14 13 6 16 11 10 8 3 8 9 7 7 9 4 9 18 10 11 12 8 10 11 9 8 8 5 6 9 22 26 12 8 4 5 7 6 10 7 13 18 21 22
33 28 18 4 10 10 12 15 14 2 5 7 8 8 7 9 8 8 7 4 5 10 13 11 12 3 3 9 7 10 4 9 8 6 3 13 6 5 7 13 8 3 7 17 21
32 24 13 8 4 13 10 7 1 3 2 6 8 8 9 8 9 9 8 3 2 4 6 9 13 13 4 2 8 9 4 4 4 2 8 14 3 7 17 11 15 7 3 5 11
31 17 8 13 6 6 14 2 3 9 8 4 4 9 8 10 10 10 6 7 8 6 6 5 8 14 11 9 8 7 6 5 4 3 7 19 8 5 16 11 7 5 7 4 14
27 10 4 5 5 6 1 3 5 5 7 7 6 3 6 6 9 9 10 9 9 11 9 5 11 15 14 7 10 7 6 10 6 5 3 3 6 8 5 11 9 7 4 2 7
21 6 14 11 8 7 1 5 6 13 7 10 6 7 8 9 7 7 7 9 9 9 7 8 6 10 10 7 6 8 6 4 4 3 4 4 6 9 14 11 11 10 10 11 11
6 3 10 8 9 0 3 6 9 6 8 6 6 8 10 9 12 9 5 8 10 6 9 7 5 12 5 4 6 3 4 4 1 3 1 2 3 14 19 20 20 15 12 11 14
7 3 12 12 2 4 5 6 6 5 7 2 2 7 7 9 9 9 10 7 13 7 7 9 6 3 5 8 5 8 7 4 5 9 4 5 2 16 17 15 18 15 14 12 12
5 3 12 9 3 4 7 17 1 8 6 5 4 2 6 7 7 7 12 14 12 6 4 1 1 3 10 10 6 5 9 8 3 1 5 3 5 13 18 8 11 15 10 9 9
4 4 1 2 5 8 9 6 5 5 3 3 6 7 8 8 9 7 10 10 15 3 7 7 1 6 6 4 5 4 5 6 2 1 3 2 9 13 18 16 14 13 11 9 7
3 3 6 4 6 6 8 9 9 7 4 5 4 6 7 5 6 8 9 11 15 6 2 3 1 4 7 9 8 7 7 5 9 6 4 10 9 13 14 16 14 13 12 10 8
4 4 5 9 10 6 5 6 10 4 8 8 6 9 8 6 7 7 8 7 3 9 2 4 5 3 9 10 10 11 24 6 6 6 14 21 15 20 16 17 14 13 14 14 12
11 12 4 8 7 7 6 3 6 7 5 10 11 7 9 11 9 8 8 6 4 4 6 7 3 1 3 3 7 9 12 14 6 13 12 8 10 16 14 15 14 13 12 12 12
Wind_Direction
2 357 354 349 345 339 334 329 322 316 312 315 320 323 327 321 306 288 244 258 213 194 188 197 217 212 141 162 70 116 279 63 153 114 108 105 110 120 130 130 144 123 138 132 135
1 355 352 350 344 338 333 329 322 313 307 309 317 322 331 329 321 267 232 219 215 230 203 227 211 196 264 110 174 88 195 86 119 122 129 123 129 136 126 129 118 129 132 141 140
357 354 350 349 345 338 333 330 322 312 303 305 313 322 330 332 303 244 232 217 220 226 235 287 300 73 272 161 204 241 260 146 138 144 107 118 142 141 119 126 139 139 146 148 144
354 353 349 347 344 338 332 327 319 310 299 300 309 323 323 342 308 201 175 192 178 214 271 340 354 145 245 160 149 266 95 99 103 107 118 156 135 139 128 132 131 138 149 149 165
352 350 347 346 343 338 331 325 317 304 293 293 305 324 321 222 249 169 153 154 177 193 58 43 34 318 254 290 329 238 130 103 87 104 137 101 104 113 122 127 132 145 154 166 171
351 348 344 343 342 338 332 325 316 299 285 286 302 314 267 248 171 163 156 164 193 169 99 64 199 218 269 27 30 324 100 98 95 113 84 79 91 105 120 127 138 157 169 174 173
349 346 343 342 340 336 333 326 316 296 278 276 291 307 256 251 188 160 166 178 200 227 175 199 196 175 307 53 354 317 308 111 124 109 126 119 109 114 126 132 150 176 186 185 150
347 344 342 340 338 334 332 324 319 295 268 267 260 160 254 234 175 162 183 199 217 263 287 269 149 81 25 122 16 349 21 63 154 128 68 119 133 135 135 141 162 176 190 125 148
346 343 340 338 335 330 331 323 314 303 263 238 223 207 268 162 168 184 193 208 197 210 242 261 158 96 9 53 14 353 344 359 324 147 142 116 141 143 145 158 180 185 156 134 137
346 342 339 336 332 328 328 308 298 277 260 260 262 260 242 213 212 187 215 231 190 202 226 201 162 85 118 110 156 220 260 234 242 163 146 144 145 148 162 178 174 162 158 142 133
346 343 338 334 328 324 330 336 49 311 241 215 209 243 149 221 187 195 213 225 252 210 218 206 174 167 181 172 189 197 214 203 150 268 62 26 118 162 186 179 171 167 168 156 156
346 343 336 329 321 314 308 263 294 311 300 224 253 265 262 155 175 204 207 219 221 253 249 215 232 205 175 187 169 184 183 167 47 350 87 108 323 300 281 193 176 172 172 158 158
346 343 337 330 315 289 237 247 318 305 292 282 215 255 232 147 213 207 207 213 239 247 259 253 228 157 166 190 170 194 194 188 147 96 72 98 325 280 270 58 197 174 173 156 162
345 343 338 334 315 314 259 291 291 327 305 253 190 243 201 164 255 250 200 207 229 252 279 290 301 311 319 247 201 235 204 174 150 137 164 222 213 289 278 289 331 173 169 164 166
343 341 336 323 304 305 325 344 334 310 305 127 178 229 191 194 267 214 244 192 234 265 260 264 292 328 178 245 351 273 9 158 191 158 130 224 94 246 282 246 270 199 179 171 171
340 337 328 332 297 291 329 318 302 355 246 170 145 187 207 195 256 264 200 248 211 246 275 281 294 261 14 335 334 322 17 324 308 134 201 194 147 256 204 211 231 155 172 174 173
335 329 299 273 232 351 332 318 6 225 275 168 166 171 193 221 215 256 181 211 185 282 285 292 283 287 146 248 305 299 349 314 321 281 240 155 212 231 217 204 216 168 220 122 193
334 321 280 258 250 299 297 336 255 265 240 269 126 185 190 193 236 216 189 188 232 241 282 260 283 243 231 174 197 231 192 171 263 310 314 150 152 225 199 183 96 134 165 275 340
341 334 254 234 171 277 353 235 223 239 357 4 21 326 280 262 195 205 222 196 218 197 197 266 288 298 307 178 156 250 272 235 245 258 301 120 23 18 40 129 114 157 211 323 26
334 297 255 226 169 205 199 253 283 319 322 24 2 1 329 314 314 226 231 216 210 225 191 239 256 280 304 96 187 171 238 354 342 288 262 159 170 144 141 134 158 117 112 100 97
321 272 126 147 170 334 232 246 273 308 62 34 345 329 319 328 342 324 317 278 196 228 208 242 181 273 14 272 181 319 273 282 149 162 234 347 307 153 142 127 114 111 117 102 78
316 298 152 161 155 206 228 240 262 332 104 107 262 293 299 321 324 332 329 331 345 354 213 220 179 193 260 299 242 188 243 227 131 280 213 175 65 57 93 115 114 104 87 70 73
315 264 169 192 245 274 264 249 315 320 356 338 308 281 323 310 322 324 322 320 327 40 15 303 45 41 334 333 340 176 234 214 244 121 248 159 138 112 95 111 108 107 99 91 84
287 298 86 158 235 269 295 332 342 176 204 301 320 338 327 321 313 300 310 307 319 358 15 22 27 139 199 249 256 294 316 268 275 316 276 139 131 140 135 130 117 117 113 107 107
232 331 14 327 339 340 20 8 334 328 353 39 1 320 285 274 279 297 300 301 305 270 12 49 310 337 304 316 349 342 91 350 13 260 84 171 144 153 125 125 122 121 121 119 122
8 352 343 299 306 320 330 292 278 317 22 347 316 295 307 288 271 269 283 293 2 332 319 335 288 304 296 16 328 29 10 12 26 18 90 90 78 112 108 109 124 138 148 148 157
358 340 305 283 301 312 269 18 359 9 327 336 335 346 321 303 350 319 294 94 126 118 2 350 10 289 135 348 352 32 346 356 35 45 89 101 139 126 127 133 147 156 160 156 159